• In Belarus
  • List of Countries
  • For 7 days
  • Water Temperature
  • Satellite Maps
  • Weather Map
  • Weather Widgets
  • user-avatar
    Login

    Hourly Weather Townsville

    Today, 20 October, Friday

    Time Temperature Precipitation Wind Pressure Humidity
    00:00 +24°C° 1.1 mm 6 mps 755 mmHg 93%
    01:00 +24°C° 1.1 mm 6 mps 755 mmHg 93%
    02:00 +24°C° 0.7 mm 6 mps 755 mmHg 93%
    03:00 +24°C° 0.7 mm 6 mps 755 mmHg 94%
    04:00 +23°C° 0 mm 6 mps 754 mmHg 94%
    05:00 +23°C° 0.2 mm 6 mps 755 mmHg 92%
    06:00 +24°C° 0.2 mm 6 mps 755 mmHg 91%
    07:00 +24°C° 0.2 mm 6 mps 755 mmHg 89%
    08:00 +26°C° 0.1 mm 6 mps 755 mmHg 84%
    09:00 +27°C° 0.1 mm 6 mps 756 mmHg 78%
    10:00 +29°C° 0 mm 6 mps 756 mmHg 70%
    11:00 +29°C° 0 mm 6 mps 756 mmHg 67%
    12:00 +30°C° 0 mm 6 mps 755 mmHg 65%
    13:00 +30°C° 0 mm 6 mps 755 mmHg 62%
    14:00 +30°C° 0 mm 6 mps 754 mmHg 64%
    15:00 +29°C° 0 mm 6 mps 754 mmHg 66%
    16:00 +29°C° 0 mm 6 mps 754 mmHg 67%
    17:00 +28°C° 0 mm 5 mps 754 mmHg 72%
    18:00 +27°C° 0 mm 5 mps 754 mmHg 77%
    19:00 +25°C° 0 mm 4 mps 754 mmHg 81%
    20:00 +25°C° 0 mm 4 mps 754 mmHg 83%
    21:00 +25°C° 0 mm 4 mps 755 mmHg 85%
    22:00 +24°C° 0 mm 3 mps 755 mmHg 88%
    23:00 +24°C° 0 mm 3 mps 755 mmHg 89%

    Tomorrow, 21 October, Saturday

    Time Temperature Precipitation Wind Pressure Humidity
    00:00 +24°C° 0 mm 3 mps 754 mmHg 90%
    01:00 +24°C° 0 mm 3 mps 754 mmHg 91%
    02:00 +24°C° 0 mm 3 mps 754 mmHg 92%
    03:00 +24°C° 0 mm 2 mps 753 mmHg 92%
    04:00 +23°C° 0 mm 2 mps 753 mmHg 93%
    05:00 +24°C° 0 mm 2 mps 753 mmHg 90%
    06:00 +24°C° 0 mm 2 mps 754 mmHg 88%
    07:00 +25°C° 0 mm 2 mps 754 mmHg 86%
    08:00 +27°C° 0 mm 2 mps 754 mmHg 77%
    09:00 +29°C° 0 mm 2 mps 754 mmHg 68%
    10:00 +31°C° 0 mm 2 mps 754 mmHg 59%
    11:00 +31°C° 0.4 mm 2 mps 753 mmHg 60%
    12:00 +31°C° 0.4 mm 2 mps 752 mmHg 60%
    13:00 +31°C° 0.4 mm 2 mps 752 mmHg 61%
    14:00 +30°C° 1 mm 2 mps 751 mmHg 66%
    15:00 +29°C° 1 mm 3 mps 751 mmHg 70%
    16:00 +28°C° 1 mm 3 mps 751 mmHg 75%
    17:00 +27°C° 1.4 mm 3 mps 751 mmHg 80%
    18:00 +26°C° 1.4 mm 2 mps 751 mmHg 85%
    19:00 +25°C° 1.4 mm 2 mps 751 mmHg 90%
    20:00 +25°C° 2.2 mm 2 mps 752 mmHg 91%
    21:00 +25°C° 2.2 mm 2 mps 752 mmHg 92%
    22:00 +25°C° 2.2 mm 1 mps 752 mmHg 93%
    23:00 +25°C° 2.6 mm 1 mps 752 mmHg 92%

    Day after tomorrow, 22 October, Sunday

    Time Temperature Precipitation Wind Pressure Humidity
    00:00 +25°C° 2.6 mm 1 mps 751 mmHg 92%
    01:00 +25°C° 2.6 mm 1 mps 751 mmHg 92%
    02:00 +24°C° 1 mm 1 mps 751 mmHg 92%
    03:00 +24°C° 1 mm 1 mps 751 mmHg 92%
    04:00 +24°C° 1 mm 1 mps 750 mmHg 92%
    05:00 +24°C° 0.3 mm 1 mps 751 mmHg 90%
    06:00 +25°C° 0.3 mm 1 mps 751 mmHg 88%
    07:00 +25°C° 0.3 mm 1 mps 752 mmHg 86%
    08:00 +27°C° 0.1 mm 1 mps 752 mmHg 77%
    09:00 +29°C° 0.1 mm 1 mps 752 mmHg 69%
    10:00 +30°C° 0.1 mm 1 mps 752 mmHg 60%
    11:00 +31°C° 0.1 mm 2 mps 751 mmHg 57%
    12:00 +32°C° 0.1 mm 2 mps 751 mmHg 55%
    13:00 +32°C° 0.1 mm 2 mps 750 mmHg 52%
    14:00 +32°C° 0.3 mm 2 mps 750 mmHg 54%
    15:00 +31°C° 0.3 mm 2 mps 750 mmHg 56%
    16:00 +30°C° 0.3 mm 3 mps 749 mmHg 59%
    17:00 +29°C° 0.1 mm 3 mps 750 mmHg 67%
    18:00 +27°C° 0.1 mm 3 mps 750 mmHg 75%
    19:00 +26°C° 0.1 mm 3 mps 750 mmHg 83%
    20:00 +25°C° 0 mm 3 mps 751 mmHg 86%
    21:00 +25°C° 0 mm 3 mps 752 mmHg 88%
    22:00 +25°C° 0 mm 3 mps 752 mmHg 90%
    23:00 +25°C° 0.4 mm 3 mps 752 mmHg 90%

    23 October, Monday

    Time Temperature Precipitation Wind Pressure Humidity
    00:00 +24°C° 0.4 mm 2 mps 752 mmHg 90%
    01:00 +24°C° 0.4 mm 2 mps 751 mmHg 90%
    02:00 +24°C° 0.1 mm 2 mps 751 mmHg 89%
    03:00 +24°C° 0.1 mm 2 mps 751 mmHg 89%
    04:00 +24°C° 0.1 mm 2 mps 751 mmHg 88%
    05:00 +24°C° 0 mm 1 mps 752 mmHg 85%
    06:00 +25°C° 0 mm 1 mps 752 mmHg 81%
    07:00 +26°C° 0 mm 1 mps 753 mmHg 78%
    08:00 +28°C° 0 mm 1 mps 753 mmHg 68%
    09:00 +29°C° 0 mm 1 mps 753 mmHg 59%
    10:00 +31°C° 0 mm 2 mps 753 mmHg 49%
    11:00 +32°C° 0 mm 2 mps 753 mmHg 47%
    12:00 +32°C° 0 mm 2 mps 753 mmHg 44%
    13:00 +34°C° 0 mm 3 mps 752 mmHg 41%
    14:00 +33°C° 0.1 mm 3 mps 752 mmHg 46%
    15:00 +32°C° 0.1 mm 4 mps 752 mmHg 51%
    16:00 +30°C° 0.1 mm 4 mps 751 mmHg 55%
    17:00 +29°C° 0 mm 4 mps 752 mmHg 64%
    18:00 +27°C° 0 mm 4 mps 753 mmHg 72%
    19:00 +25°C° 0 mm 3 mps 753 mmHg 80%
    20:00 +25°C° 0 mm 4 mps 754 mmHg 81%
    21:00 +25°C° 0 mm 4 mps 755 mmHg 83%
    22:00 +25°C° 0 mm 4 mps 755 mmHg 84%
    23:00 +24°C° 0 mm 3 mps 755 mmHg 85%

    24 October, Tuesday

    Time Temperature Precipitation Wind Pressure Humidity
    00:00 +24°C° 0 mm 3 mps 755 mmHg 85%
    01:00 +24°C° 0 mm 3 mps 754 mmHg 86%
    02:00 +24°C° 0 mm 3 mps 754 mmHg 86%
    03:00 +24°C° 0 mm 3 mps 754 mmHg 87%
    04:00 +22°C° 0 mm 3 mps 754 mmHg 87%
    05:00 +24°C° 0 mm 3 mps 755 mmHg 84%
    06:00 +25°C° 0 mm 3 mps 756 mmHg 81%
    07:00 +25°C° 0 mm 3 mps 756 mmHg 78%
    08:00 +27°C° 0 mm 4 mps 757 mmHg 71%
    09:00 +28°C° 0 mm 4 mps 757 mmHg 64%
    10:00 +30°C° 0 mm 4 mps 757 mmHg 57%
    11:00 +30°C° 0 mm 4 mps 757 mmHg 55%
    12:00 +32°C° 0 mm 4 mps 756 mmHg 52%
    13:00 +32°C° 0 mm 4 mps 756 mmHg 49%
    14:00 +32°C° 0 mm 4 mps 755 mmHg 51%
    15:00 +30°C° 0 mm 4 mps 755 mmHg 52%
    16:00 +29°C° 0 mm 4 mps 755 mmHg 54%
    17:00 +28°C° 0 mm 4 mps 755 mmHg 59%
    18:00 +27°C° 0 mm 3 mps 756 mmHg 65%
    19:00 +25°C° 0 mm 3 mps 756 mmHg 71%
    20:00 +25°C° 0 mm 3 mps 757 mmHg 73%
    21:00 +25°C° 0 mm 3 mps 757 mmHg 75%
    22:00 +24°C° 0 mm 3 mps 758 mmHg 77%
    23:00 +24°C° 0 mm 3 mps 757 mmHg 78%

    25 October, Wednesday

    Time Temperature Precipitation Wind Pressure Humidity
    00:00 +24°C° 0 mm 3 mps 757 mmHg 79%
    01:00 +22°C° 0 mm 3 mps 756 mmHg 80%
    02:00 +22°C° 0 mm 3 mps 756 mmHg 81%
    03:00 +22°C° 0 mm 3 mps 756 mmHg 82%
    04:00 +22°C° 0 mm 3 mps 756 mmHg 83%
    05:00 +22°C° 0 mm 3 mps 756 mmHg 80%
    06:00 +23°C° 0 mm 4 mps 757 mmHg 77%
    07:00 +25°C° 0 mm 4 mps 757 mmHg 74%
    08:00 +26°C° 0 mm 4 mps 757 mmHg 67%
    09:00 +28°C° 0 mm 4 mps 757 mmHg 59%
    10:00 +30°C° 0 mm 4 mps 757 mmHg 52%
    11:00 +30°C° 0 mm 4 mps 756 mmHg 49%
    12:00 +32°C° 0 mm 4 mps 756 mmHg 47%
    13:00 +32°C° 0 mm 4 mps 755 mmHg 45%
    14:00 +32°C° 0 mm 4 mps 755 mmHg 46%
    15:00 +30°C° 0 mm 4 mps 755 mmHg 48%
    16:00 +30°C° 0 mm 4 mps 754 mmHg 49%
    17:00 +28°C° 0 mm 3 mps 755 mmHg 56%
    18:00 +27°C° 0 mm 3 mps 755 mmHg 63%
    19:00 +25°C° 0 mm 3 mps 756 mmHg 70%
    20:00 +25°C° 0 mm 3 mps 756 mmHg 72%
    21:00 +24°C° 0 mm 2 mps 756 mmHg 75%
    22:00 +24°C° 0 mm 2 mps 756 mmHg 77%
    23:00 +24°C° 0 mm 2 mps 756 mmHg 79%
    Show more